GW0993 Weather Reports


time (UTC)temp
C
wind
direction
speed
KPH
gust
KPH
rain 1hr
cm
rain 24hr
cm
rain mn
cm
humidity
%
barometer
mb
20260503180508 23 360 0.0 8.0 0.00 0.00 0.00 42 1013.9
20260503180035 23 24 3.2 8.0 0.00 0.00 0.00 44 1014.0
20260503175507 23 0 3.2 8.0 0.00 0.00 0.00 43 1014.1
20260503175010 23 195 1.6 9.7 0.00 0.00 0.00 43 1014.1
20260503174531 23 317 3.2 9.7 0.00 0.00 0.00 45 1014.2
20260503174012 23 321 3.2 9.7 0.00 0.00 0.00 45 1014.2
20260503173510 22 355 1.6 8.0 0.00 0.00 0.00 46 1014.3
20260503173035 22 0 3.2 8.0 0.00 0.00 0.00 48 1014.4
20260503172514 22 325 1.6 6.4 0.00 0.00 0.00 46 1014.4
20260503172010 22 0 1.6 6.4 0.00 0.00 0.00 47 1014.4
20260503171531 22 5 0.0 6.4 0.00 0.00 0.00 49 1014.5
20260503170512 21 339 0.0 4.8 0.00 0.00 0.00 51 1014.5
20260503151011 16 47 1.6 4.8 0.00 0.00 0.00 70 1014.9
20260503150512 16 38 1.6 4.8 0.00 0.00 0.00 68 1015.1
20260503131008 8 0 0.0 0.0 0.00 0.00 0.00 93 1014.8
20260503130510 8 0 0.0 0.0 0.00 0.00 0.00 93 1014.7
20260503110510 10 0 0.0 3.2 0.00 0.00 0.00 91 1014.9
20260503090510 11 22 0.0 3.2 0.00 0.00 0.00 88 1014.7
20260503081534 12 0 0.0 1.6 0.00 0.00 0.00 86 1014.6
20260503081012 12 0 0.0 3.2 0.00 0.00 0.00 85 1014.6
20260503080517 12 0 0.0 3.2 0.00 0.00 0.00 85 1014.7
20260503072509 12 182 1.6 3.2 0.00 0.00 0.00 84 1014.4
20260503072012 12 0 0.0 0.0 0.00 0.00 0.00 83 1014.5
20260503071545 12 0 0.0 0.0 0.00 0.00 0.00 82 1014.6
20260503071017 12 0 0.0 0.0 0.00 0.00 0.00 82 1014.6
20260503070511 13 0 0.0 0.0 0.00 0.00 0.00 82 1014.5
20260503055012 15 0 0.0 0.0 0.00 0.00 0.00 74 1014.1
20260503054529 15 0 0.0 1.6 0.00 0.00 0.00 73 1014.1
20260503054010 15 0 0.0 3.2 0.00 0.00 0.00 73 1014.1
20260503053512 16 0 0.0 4.8 0.00 0.00 0.00 72 1014.0
20260503053036 16 182 1.6 6.4 0.00 0.00 0.00 72 1014.0
20260503052513 16 184 3.2 6.4 0.00 0.00 0.00 72 1014.0
20260503052012 16 178 1.6 4.8 0.00 0.00 0.00 71 1014.1
20260503051530 16 203 0.0 8.0 0.00 0.00 0.00 70 1014.1
20260503051011 16 186 3.2 8.0 0.00 0.00 0.00 70 1014.1
20260503050509 16 178 1.6 6.4 0.00 0.00 0.00 70 1014.2
20260503050028 16 178 1.6 8.0 0.00 0.00 0.00 70 1014.1
20260503045509 16 182 3.2 8.0 0.00 0.00 0.00 69 1014.0
20260503045013 17 205 1.6 6.4 0.00 0.00 0.00 69 1014.0
20260503044544 17 205 1.6 8.0 0.00 0.00 0.00 69 1014.0
20260503044012 17 221 3.2 11.3 0.00 0.00 0.00 70 1014.0
20260503043510 17 200 4.8 9.7 0.00 0.00 0.00 70 1013.9
20260503043040 17 211 3.2 8.0 0.00 0.00 0.00 69 1013.8
20260503042510 17 182 3.2 6.4 0.00 0.00 0.00 69 1013.8
20260503042011 17 171 1.6 6.4 0.00 0.00 0.00 69 1013.7
20260503041530 18 171 1.6 6.4 0.00 0.00 0.00 68 1013.8
20260503041011 18 171 1.6 6.4 0.00 0.00 0.00 67 1013.8
20260503040511 18 171 1.6 6.4 0.00 0.00 0.00 67 1013.8
20260503040033 18 171 1.6 6.4 0.00 0.00 0.00 66 1013.6
20260503035512 18 205 1.6 6.4 0.00 0.00 0.00 65 1013.6
20260503035012 19 185 1.6 6.4 0.00 0.00 0.00 64 1013.6
20260503034526 19 203 3.2 6.4 0.00 0.00 0.00 64 1013.5
20260503034012 20 198 1.6 8.0 0.00 0.00 0.00 63 1013.4
20260503033517 20 181 4.8 8.0 0.00 0.00 0.00 62 1013.4
20260503033027 20 186 3.2 8.0 0.00 0.00 0.00 61 1013.3
20260503032512 20 229 3.2 8.0 0.00 0.00 0.00 60 1013.3
20260503032016 21 213 3.2 9.7 0.00 0.00 0.00 59 1013.2
20260503031532 21 213 4.8 9.7 0.00 0.00 0.00 59 1013.3
20260503031010 21 199 4.8 9.7 0.00 0.00 0.00 58 1013.3
20260503030509 21 204 3.2 8.0 0.00 0.00 0.00 57 1013.4
20260503030029 21 185 3.2 9.7 0.00 0.00 0.00 56 1013.3
20260503025512 22 194 4.8 9.7 0.00 0.00 0.00 56 1013.2
20260503025012 22 199 4.8 9.7 0.00 0.00 0.00 56 1013.2
20260503024528 22 157 4.8 9.7 0.00 0.00 0.00 55 1013.1
20260503024016 22 165 4.8 12.9 0.00 0.00 0.00 54 1013.2
20260503023512 23 195 6.4 12.9 0.00 0.00 0.00 51 1013.2
20260503023027 23 181 6.4 14.5 0.00 0.00 0.00 47 1013.1
20260503022513 23 198 4.8 14.5 0.00 0.00 0.00 47 1013.1
20260503022015 23 211 1.6 12.9 0.00 0.00 0.00 48 1013.2
20260503021528 23 220 8.0 14.5 0.00 0.00 0.00 47 1013.3
20260503021010 23 207 4.8 14.5 0.00 0.00 0.00 47 1013.2
20260503020513 24 201 6.4 12.9 0.00 0.00 0.00 46 1013.3
20260503020028 24 206 3.2 9.7 0.00 0.00 0.00 46 1013.3
20260503015509 25 207 3.2 9.7 0.00 0.00 0.00 45 1013.3
20260503015014 25 171 4.8 8.0 0.00 0.00 0.00 44 1013.3
20260503014528 25 211 1.6 6.4 0.00 0.00 0.00 43 1013.4
20260503014010 25 0 0.0 6.4 0.00 0.00 0.00 43 1013.4
20260503013512 25 0 1.6 6.4 0.00 0.00 0.00 42 1013.4
20260503013029 25 202 1.6 8.0 0.00 0.00 0.00 41 1013.5
20260503012511 25 244 1.6 8.0 0.00 0.00 0.00 42 1013.5
20260503012012 25 207 3.2 6.4 0.00 0.00 0.00 42 1013.5
20260503011532 25 240 0.0 6.4 0.00 0.00 0.00 44 1013.6
20260503011010 25 0 1.6 6.4 0.00 0.00 0.00 43 1013.6
20260503010513 25 248 1.6 6.4 0.00 0.00 0.00 43 1013.6
20260503010035 25 252 3.2 6.4 0.00 0.00 0.00 44 1013.6
20260503005511 25 259 0.0 4.8 0.00 0.00 0.00 44 1013.6
20260503005011 25 246 1.6 8.0 0.00 0.00 0.00 46 1013.7
20260503004530 25 255 0.0 8.0 0.00 0.00 0.00 45 1013.7
20260503004017 25 242 3.2 6.4 0.00 0.00 0.00 46 1013.8
20260503003513 25 253 1.6 6.4 0.00 0.00 0.00 45 1013.8
20260503003029 25 0 0.0 6.4 0.00 0.00 0.00 46 1013.8
20260503002512 25 248 1.6 6.4 0.00 0.00 0.00 47 1013.9
20260503001529 25 0 1.6 8.0 0.00 0.00 0.00 44 1013.8
20260503001011 25 246 3.2 8.0 0.00 0.00 0.00 46 1013.8
20260503000512 25 230 0.0 12.9 0.00 0.00 0.00 47 1013.9
20260503000042 25 221 3.2 12.9 0.00 0.00 0.00 49 1013.9
20260502235509 25 243 1.6 9.7 0.00 0.00 0.00 48 1014.0
20260502235011 25 233 3.2 9.7 0.00 0.00 0.00 47 1014.0
20260502234526 25 0 0.0 11.3 0.00 0.00 0.00 49 1014.0
20260502234011 25 249 4.8 9.7 0.00 0.00 0.00 49 1014.1
20260502233512 25 248 1.6 11.3 0.00 0.00 0.00 50 1014.1
20260502233029 25 258 3.2 11.3 0.00 0.00 0.00 49 1014.1
20260502232509 24 242 3.2 11.3 0.00 0.00 0.00 49 1014.2
20260502232013 24 226 3.2 11.3 0.00 0.00 0.00 50 1014.2
20260502231533 24 250 4.8 9.7 0.00 0.00 0.00 49 1014.2
20260502231012 24 241 0.0 8.0 0.00 0.00 0.00 50 1014.3
20260502230510 24 259 1.6 11.3 0.00 0.00 0.00 49 1014.4
20260502230031 24 258 3.2 11.3 0.00 0.00 0.00 49 1014.4
20260502225515 24 249 3.2 11.3 0.00 0.00 0.00 48 1014.4
20260502225013 24 0 1.6 12.9 0.00 0.00 0.00 49 1014.5
20260502224529 24 227 3.2 12.9 0.00 0.00 0.00 48 1014.6
20260502224014 24 251 1.6 12.9 0.00 0.00 0.00 49 1014.6
20260502223510 23 259 6.4 12.9 0.00 0.00 0.00 48 1014.7
20260502223030 23 233 3.2 11.3 0.00 0.00 0.00 50 1014.8
20260502222513 24 248 3.2 11.3 0.00 0.00 0.00 49 1014.7
20260502222010 24 271 1.6 12.9 0.00 0.00 0.00 50 1014.8
20260502221528 24 251 4.8 12.9 0.00 0.00 0.00 51 1014.9
20260502221011 24 236 6.4 12.9 0.00 0.00 0.00 52 1015.0
20260502220512 24 255 3.2 12.9 0.00 0.00 0.00 52 1015.0
20260502220027 24 259 4.8 11.3 0.00 0.00 0.00 52 1015.0
20260502215513 24 243 4.8 11.3 0.00 0.00 0.00 53 1015.0
20260502215016 24 252 3.2 11.3 0.00 0.00 0.00 54 1015.0
20260502214529 23 248 0.0 12.9 0.00 0.00 0.00 54 1015.2
20260502214015 23 248 6.4 12.9 0.00 0.00 0.00 54 1015.2
20260502213511 24 223 4.8 12.9 0.00 0.00 0.00 53 1015.3
20260502213035 24 263 1.6 8.0 0.00 0.00 0.00 55 1015.5
20260502212512 23 237 1.6 11.3 0.00 0.00 0.00 57 1015.6
20260502212011 24 251 1.6 11.3 0.00 0.00 0.00 55 1015.7
20260502211535 24 243 1.6 11.3 0.00 0.00 0.00 56 1015.7
20260502211011 23 0 1.6 11.3 0.00 0.00 0.00 57 1015.7
20260502210512 23 246 1.6 8.0 0.00 0.00 0.00 57 1015.8
20260502210028 23 259 1.6 11.3 0.00 0.00 0.00 55 1015.8
20260502205510 23 277 1.6 11.3 0.00 0.00 0.00 55 1015.9
20260502205015 23 271 4.8 11.3 0.00 0.00 0.00 55 1015.9
20260502204528 23 252 1.6 12.9 0.00 0.00 0.00 56 1015.9
20260502204009 24 0 3.2 12.9 0.00 0.00 0.00 56 1016.0
20260502203513 24 243 3.2 12.9 0.00 0.00 0.00 54 1016.0
20260502203028 24 238 3.2 12.9 0.00 0.00 0.00 55 1016.1
20260502202512 24 242 3.2 8.0 0.00 0.00 0.00 50 1016.2
20260502202011 24 214 1.6 8.0 0.00 0.00 0.00 47 1016.2
20260502201530 24 192 1.6 8.0 0.00 0.00 0.00 51 1016.3
20260502201009 23 229 3.2 8.0 0.00 0.00 0.00 53 1016.3
20260502200512 23 0 1.6 12.9 0.00 0.00 0.00 49 1016.3
20260502200031 23 0 3.2 12.9 0.00 0.00 0.00 53 1016.4
20260502195513 23 355 3.2 11.3 0.00 0.00 0.00 52 1016.4
20260502195013 23 261 3.2 9.7 0.00 0.00 0.00 52 1016.5
20260502194527 23 244 3.2 9.7 0.00 0.00 0.00 51 1016.4
20260502194009 23 254 4.8 9.7 0.00 0.00 0.00 52 1016.4
20260502193509 23 243 1.6 8.0 0.00 0.00 0.00 51 1016.3
20260502193026 23 278 3.2 9.7 0.00 0.00 0.00 55 1016.4
20260502192513 23 329 3.2 9.7 0.00 0.00 0.00 52 1016.4
20260502192013 23 304 1.6 8.0 0.00 0.00 0.00 56 1016.4
20260502191528 22 350 3.2 14.5 0.00 0.00 0.00 51 1016.5
20260502191011 22 21 6.4 14.5 0.00 0.00 0.00 51 1016.6
20260502190513 22 297 3.2 8.0 0.00 0.00 0.00 55 1016.6
20260502190040 22 348 1.6 12.9 0.00 0.00 0.00 52 1016.5
20260502185512 22 30 3.2 12.9 0.00 0.00 0.00 52 1016.6
20260502185012 22 0 3.2 8.0 0.00 0.00 0.00 59 1016.7
20260502184528 22 341 3.2 11.3 0.00 0.00 0.00 53 1016.7
20260502184011 22 325 3.2 11.3 0.00 0.00 0.00 56 1016.8
20260502183513 21 347 3.2 11.3 0.00 0.00 0.00 54 1016.8
20260502183027 21 313 4.8 9.7 0.00 0.00 0.00 54 1016.9
20260502182512 21 312 1.6 12.9 0.00 0.00 0.00 55 1017.1
20260502182010 21 5 4.8 12.9 0.00 0.00 0.00 55 1017.1
20260502181529 21 338 3.2 9.7 0.00 0.00 0.00 56 1017.1
20260502181011 20 360 4.8 9.7 0.00 0.00 0.00 56 1017.2
20260502180512 20 360 3.2 11.3 0.00 0.00 0.00 56 1017.3